Powrót do katalogu

GVM BLITS-M COVER

AktywnyPO
NORAD 43755·DEBRIS·🇷🇺 Russia
Ta nazwa satelity nie została jeszcze potwierdzona przez oficjalne źródła.

Wystrzelony Nov 30, 2018 z Plesetsk Cosmodrome

Loading…

Następne Przeloty (najbliższe 24 godziny)

TLE

ŚwieżeSource: Space-Track

Epoka: Sep 14, 2026, 23:13 UTC

1 43755U 18097E   26257.96781488  .00000024  00000-0  42527-4 0  9992
2 43755  82.5146  36.6864 0217312  85.8863 276.7043 12.80919078364107

Śledź GVM BLITS-M COVER w czasie rzeczywistym z AllMySat

Download on the App Store